This demonstration page uses our WeatherBlox Daily Observations layout. Learn more.

39.01783, -85.05884

Hourly Observations for June 5, 2019

Temp ( °F °C ) Dew Point ( °F °C ) Humidity (%) Winds ( mph kmh ) Pressure ( in mb ) Visibility ( mi km ) Precip ( " mm )
12:52 am 00:52 Cloudy 68 20 56 13.3 65 65 S 8 13 29.88 1012 10 16.09344 0 0
1:52 am 01:52 Cloudy 69 20.6 57 13.9 66 66 SSW 8 13 29.85 1011 10 16.09344 0 0
2:52 am 02:52 Cloudy 69 20.6 57 13.9 66 66 SSW 9 15 29.85 1011 10 16.09344 0 0
3:52 am 03:52 Cloudy 70 21.1 57 13.9 64 64 SSW 9 15 29.83 1010 10 16.09344 0 0
4:38 am 04:38 Cloudy with Thunderstorms 69 20.6 58 14.4 68 68 SSW 7 11 29.85 1011 10 16.09344 0 0
4:52 am 04:52 Cloudy with Light Thunderstorms 67 19.4 60 15.6 79 79 SSW 9 15 29.83 1010 7 11.265408 0.02 0.508
5:11 am 05:11 Cloudy with Light Rain 67 19.4 60 15.6 79 79 S 10 17 29.83 1010 10 16.09344 0.001 0.001
6:52 am 06:52 Cloudy 68 20 60 15.6 76 76 SSW 9 15 29.83 1010 9 14.484096 0 0
7:52 am 07:52 Cloudy 69 20.6 61 16.1 76 76 SSW 7 11 29.83 1010 9 14.484096 0 0
8:52 am 08:52 Cloudy with Light Rain 69 20.6 63 17.2 81 81 SW 10 17 29.83 1010 5 8.04672 0.01 0.254
9:39 am 09:39 Cloudy 69 20.6 64 17.8 84 84 SSW 10 17 29.83 1010 7 11.265408 0.01 0.254
9:52 am 09:52 Cloudy 70 21.1 65 18.3 84 84 SW 12 19 29.8 1009 7 11.265408 0.01 0.254
10:28 am 10:28 Cloudy 70 21.1 65 18.3 84 84 SW 15 24 29.83 1010 7 11.265408 0 0
10:52 am 10:52 Cloudy 71 21.7 66 18.9 84 84 SW 14 22 29.8 1009 8 12.874752 0 0
11:09 am 11:09 Cloudy 71 21.7 66 18.9 84 84 SW 12 19 29.8 1009 8 12.874752 0 0
11:28 am 11:28 Cloudy with Light Rain 71 21.7 66 18.9 84 84 SW 14 22 29.83 1010 8 12.874752 0.001 0.001
11:52 am 11:52 Cloudy 71 21.7 66 18.9 84 84 SSW 8 13 29.8 1009 8 12.874752 0.001 0.001
12:52 pm 12:52 Cloudy 75 23.9 68 20 79 79 SSW 14 22 29.8 1009 8 12.874752 0 0
1:52 pm 13:52 Cloudy 76 24.4 68 20 77 77 SSW 10 17 29.8 1009 8 12.874752 0 0
2:52 pm 14:52 Cloudy 77 25 69 20.6 77 77 SSW 8 13 29.77 1008 8 12.874752 0 0
3:52 pm 15:52 Mostly Cloudy 82 27.8 69 20.6 65 65 W 8 13 29.77 1008 10 16.09344 0 0
4:52 pm 16:52 Mostly Cloudy 84 28.9 70 21.1 63 63 SW 10 17 29.74 1007 10 16.09344 0 0
5:52 pm 17:52 Mostly Cloudy 83 28.3 69 20.6 63 63 WSW 6 9 29.71 1006 10 16.09344 0 0
6:15 pm 18:15 Cloudy with Thunderstorms 82 27.8 69 20.6 65 65 SW 5 7 29.68 1005 10 16.09344 0.001 0.001
6:46 pm 18:46 Cloudy with Thunderstorms 72 22 66 19 83 83 NW 44 70 29.77 1008 1 1.609344 0.001 0.001
6:52 pm 18:52 Cloudy with Heavy Thunderstorms 65 18.3 62 16.7 90 90 NNE 40 65 29.77 1008 0.25 0.402336 0.11 2.794
7:01 pm 19:01 Cloudy with Heavy Thunderstorms 65 18.3 62 16.7 90 90 VRB 3 6 29.8 1009 2 3.218688 0.59 14.986
7:22 pm 19:22 Cloudy with Thunderstorms 66 18.9 65 18.3 96 96 E 5 7 29.77 1008 3 4.828032 0.79 20.066
7:43 pm 19:43 Mostly Cloudy with Light Rain 66 18.9 65 18.3 96 96 SSE 13 20 29.74 1007 8 12.874752 0.82 20.828
7:52 pm 19:52 Cloudy with Light Rain 66 18.9 65 18.3 96 96 SSW 8 13 29.74 1007 10 16.09344 0.82 20.828
9:52 pm 21:52 Cloudy 67 19.4 65 18.3 93 93 SSW 10 17 29.77 1008 10 16.09344 0.001 0.001
10:52 pm 22:52 Cloudy with Light Rain 68 20 66 18.9 93 93 SW 10 17 29.77 1008 10 16.09344 0.001 0.001
11:52 pm 23:52 Cloudy 68 20 65 18.3 90 90 WSW 7 11 29.77 1008 10 16.09344 0.001 0.001

Powered by AerisWeather